Wheeling, WV

12:48 PM EST on December 05, 2019 (GMT -0500)
Wheeling-Ohio County

Weather History for KHLG - October, 2019

Change the Weather History Date:

Monday, October 14, 2019

  Actual Average Record
Temperature  
Mean Temperature 55 °F 54 °F  
Max Temperature 63 °F 63 °F 85 °F (1935)
Min Temperature 46 °F 44 °F 22 °F (1934)
Degree Days  
Heating Degree Days 10 11  
Month to date heating degree days 83 132  
Since 1 July heating degree days 84 233  
Cooling Degree Days 0    
Month to date cooling degree days 40  
Year to date cooling degree days 986  
Growing Degree Days 4 (Base 50)    
Moisture  
Dew Point 38 °F    
Average Humidity 56    
Maximum Humidity 73    
Minimum Humidity 39    
Precipitation  
Precipitation 0.00 in 0.08 in 1.06 in (2003)
Month to date precipitation 1.72 1.17  
Year to date precipitation 29.70 30.94  
Sea Level Pressure  
Sea Level Pressure 30.04 in    
Wind  
Wind Speed 10 mph (WSW)    
Max Wind Speed 16 mph    
Max Gust Speed 24 mph    
Visibility 10 miles    
Events      
T = Trace of Precipitation, MM = Missing Value Source: NWS Daily Summary

Daily Weather History Graph

Daily Weather History Graph

Search for Another Location

Airport or City:

Astronomy

Oct. 14, 2019 Rise Set
Actual Time 7:31 AM EDT 6:44 PM EDT
Civil Twilight 7:04 AM EDT 7:11 PM EDT
Nautical Twilight 6:33 AM EDT 7:43 PM EDT
Astronomical Twilight 6:01 AM EDT 8:14 PM EDT
Moon 7:34 PM EDT (10/14) 8:02 AM EDT (10/14)
Length of Visible Light 12h 07m
Length of Day
11h 12m
Waxing Gibbous, 99% of the Moon is Illuminated
Oct 14
Waxing Gibbous
Oct 21
Last Quarter
Oct 27
New
Nov 4
First Quarter
Nov 12
Full

Hourly Weather History & Observations

Time (EDT) Temp. Windchill Dew Point Humidity Pressure Visibility Wind Dir Wind Speed Gust Speed Precip Events Conditions
12:53 AM 50.0 °F - 36.0 °F 59% 29.96 in 10.0 mi South 11.5 mph - N/A   Clear
1:53 AM 51.1 °F - 37.0 °F 59% 29.96 in 10.0 mi SW 8.1 mph - N/A   Clear
2:53 AM 48.0 °F - 37.0 °F 66% 29.96 in 10.0 mi SSW 6.9 mph - N/A   Clear
3:53 AM 48.0 °F - 37.0 °F 66% 29.96 in 10.0 mi SSW 9.2 mph - N/A   Clear
4:53 AM 48.0 °F - 37.0 °F 66% 29.97 in 10.0 mi SW 6.9 mph - N/A   Clear
5:53 AM 46.9 °F - 37.0 °F 68% 29.98 in 10.0 mi SW 6.9 mph - N/A   Clear
6:53 AM 46.9 °F - 37.0 °F 68% 30.00 in 10.0 mi SW 5.8 mph - N/A   Clear
7:53 AM 46.0 °F 41.4 °F 37.9 °F 73% 30.01 in 10.0 mi SW 9.2 mph - N/A   Clear
8:53 AM 48.0 °F - 37.9 °F 68% 30.04 in 10.0 mi SW 9.2 mph - N/A   Clear
9:53 AM 52.0 °F - 39.0 °F 61% 30.05 in 10.0 mi West 8.1 mph - N/A   Clear
10:53 AM 54.0 °F - 39.9 °F 59% 30.07 in 10.0 mi WSW 8.1 mph - N/A   Clear
11:53 AM 57.9 °F - 39.9 °F 51% 30.07 in 10.0 mi West 11.5 mph - N/A   Clear
12:53 PM 59.0 °F - 36.0 °F 42% 30.06 in 10.0 mi WSW 13.8 mph 21.9 mph N/A   Clear
1:53 PM 61.0 °F - 37.9 °F 42% 30.04 in 10.0 mi West 13.8 mph 20.7 mph N/A   Clear
3:53 PM 63.0 °F - 37.9 °F 40% 30.04 in 10.0 mi West 16.1 mph 24.2 mph N/A   Clear
4:53 PM 62.1 °F - 37.9 °F 41% 30.04 in 10.0 mi WSW 11.5 mph - N/A   Clear
5:53 PM 61.0 °F - 37.0 °F 41% 30.06 in 10.0 mi West 10.4 mph - N/A   Clear
6:53 PM 57.0 °F - 37.0 °F 47% 30.08 in 10.0 mi West 8.1 mph - N/A   Clear
7:53 PM 55.9 °F - 37.0 °F 49% 30.09 in 10.0 mi West 6.9 mph - N/A   Clear
8:53 PM 55.0 °F - 37.0 °F 51% 30.10 in 10.0 mi Calm Calm - N/A   Clear
9:53 PM 51.1 °F - 37.9 °F 61% 30.12 in 10.0 mi Calm Calm - N/A   Clear
10:53 PM 48.9 °F - 39.0 °F 69% 30.13 in 10.0 mi Calm Calm - N/A   Clear
11:53 PM 50.0 °F - 37.0 °F 61% 30.14 in 10.0 mi North 3.5 mph - N/A   Clear